When you browse on this site, cookies collect data to enhance your experience and personalize the content and advertising you see.
Visit our Privacy Policy to learn more. By continuing to use the site, you agree to this use of cookies and data.

Previsão horária em Abakany

Hoje, 29 Setembro, Terça-feira

Tempo Temperatura Precipitação Vento Pressão Humidade
00:00 +10°C° 0 mm 2 m/s 751 mmHg 97%
01:00 +10°C° 0 mm 2 m/s 751 mmHg 97%
02:00 +10°C° 0 mm 2 m/s 751 mmHg 97%
03:00 +12°C° 0 mm 2 m/s 751 mmHg 97%
04:00 +12°C° 0 mm 2 m/s 751 mmHg 97%
05:00 +12°C° 0 mm 1 m/s 751 mmHg 97%
06:00 +12°C° 0 mm 1 m/s 751 mmHg 96%
07:00 +12°C° 0 mm 1 m/s 751 mmHg 95%
08:00 +12°C° 0 mm 2 m/s 751 mmHg 93%
09:00 +13°C° 0 mm 2 m/s 752 mmHg 88%
10:00 +14°C° 0 mm 2 m/s 752 mmHg 82%
11:00 +15°C° 0 mm 2 m/s 752 mmHg 77%
12:00 +16°C° 0 mm 1 m/s 752 mmHg 71%
13:00 +18°C° 0 mm 1 m/s 752 mmHg 66%
14:00 +19°C° 0 mm 1 m/s 752 mmHg 60%
15:00 +18°C° 0 mm 1 m/s 752 mmHg 65%
16:00 +16°C° 0 mm 1 m/s 751 mmHg 69%
17:00 +15°C° 0 mm 1 m/s 751 mmHg 74%
18:00 +14°C° 0 mm 1 m/s 751 mmHg 78%
19:00 +13°C° 0 mm 1 m/s 751 mmHg 82%
20:00 +12°C° 0 mm 1 m/s 751 mmHg 86%
21:00 +11°C° 0 mm 1 m/s 751 mmHg 87%
22:00 +11°C° 0 mm 1 m/s 751 mmHg 89%
23:00 +10°C° 0 mm 1 m/s 751 mmHg 91%

Amanhã, 30 Setembro, Quarta-feira

Tempo Temperatura Precipitação Vento Pressão Humidade
00:00 +10°C° 0 mm 1 m/s 751 mmHg 92%
01:00 +9°C° 0 mm 2 m/s 751 mmHg 94%
02:00 +8°C° 0 mm 2 m/s 751 mmHg 95%
03:00 +8°C° 0 mm 2 m/s 751 mmHg 96%
04:00 +8°C° 0 mm 2 m/s 750 mmHg 96%
05:00 +8°C° 0 mm 2 m/s 750 mmHg 96%
06:00 +9°C° 0 mm 2 m/s 750 mmHg 91%
07:00 +10°C° 0 mm 2 m/s 750 mmHg 86%
08:00 +10°C° 0 mm 2 m/s 750 mmHg 81%
09:00 +13°C° 0 mm 2 m/s 750 mmHg 73%
10:00 +15°C° 0 mm 2 m/s 750 mmHg 65%
11:00 +16°C° 0 mm 2 m/s 750 mmHg 57%
12:00 +17°C° 0 mm 3 m/s 750 mmHg 56%
13:00 +17°C° 0 mm 3 m/s 749 mmHg 54%
14:00 +18°C° 0 mm 3 m/s 749 mmHg 52%
15:00 +17°C° 0 mm 3 m/s 749 mmHg 57%
16:00 +16°C° 0 mm 2 m/s 749 mmHg 62%
17:00 +15°C° 0 mm 2 m/s 749 mmHg 68%
18:00 +14°C° 0 mm 2 m/s 749 mmHg 70%
19:00 +13°C° 0 mm 2 m/s 750 mmHg 73%
20:00 +12°C° 0 mm 2 m/s 750 mmHg 75%
21:00 +10°C° 0 mm 2 m/s 750 mmHg 77%
22:00 +10°C° 0 mm 2 m/s 750 mmHg 79%
23:00 +9°C° 0 mm 2 m/s 750 mmHg 80%

Depois de amanhã, 1 Outubro, Quinta-feira

Tempo Temperatura Precipitação Vento Pressão Humidade
00:00 +9°C° 0 mm 2 m/s 750 mmHg 81%
01:00 +8°C° 0 mm 2 m/s 749 mmHg 82%
02:00 +8°C° 0 mm 2 m/s 749 mmHg 83%
03:00 +8°C° 0 mm 2 m/s 749 mmHg 83%
04:00 +8°C° 0 mm 2 m/s 749 mmHg 83%
05:00 +7°C° 0 mm 3 m/s 749 mmHg 83%
06:00 +8°C° 0 mm 3 m/s 749 mmHg 80%
07:00 +9°C° 0 mm 3 m/s 749 mmHg 76%
08:00 +10°C° 0 mm 3 m/s 749 mmHg 73%
09:00 +11°C° 0 mm 3 m/s 749 mmHg 68%
10:00 +13°C° 0 mm 3 m/s 749 mmHg 63%
11:00 +15°C° 0 mm 4 m/s 749 mmHg 58%
12:00 +15°C° 0 mm 4 m/s 749 mmHg 57%
13:00 +17°C° 0 mm 4 m/s 749 mmHg 55%
14:00 +18°C° 0 mm 4 m/s 749 mmHg 54%
15:00 +17°C° 0 mm 4 m/s 749 mmHg 58%
16:00 +16°C° 0 mm 3 m/s 749 mmHg 63%
17:00 +14°C° 0 mm 3 m/s 749 mmHg 67%
18:00 +13°C° 0 mm 3 m/s 750 mmHg 69%
19:00 +12°C° 0 mm 3 m/s 750 mmHg 70%
20:00 +11°C° 0 mm 3 m/s 750 mmHg 71%
21:00 +11°C° 0 mm 3 m/s 750 mmHg 73%
22:00 +10°C° 0 mm 3 m/s 750 mmHg 74%
23:00 +10°C° 0 mm 3 m/s 750 mmHg 76%

2 Outubro, Sexta-feira

Tempo Temperatura Precipitação Vento Pressão Humidade
00:00 +10°C° 0 mm 3 m/s 750 mmHg 76%
01:00 +9°C° 0 mm 3 m/s 750 mmHg 77%
02:00 +9°C° 0 mm 3 m/s 750 mmHg 78%
03:00 +9°C° 0 mm 3 m/s 750 mmHg 78%
04:00 +8°C° 0 mm 3 m/s 750 mmHg 78%
05:00 +8°C° 0 mm 3 m/s 750 mmHg 78%
06:00 +9°C° 0 mm 3 m/s 750 mmHg 75%
07:00 +9°C° 0 mm 3 m/s 750 mmHg 72%
08:00 +10°C° 0 mm 3 m/s 750 mmHg 69%
09:00 +11°C° 0 mm 3 m/s 750 mmHg 67%
10:00 +12°C° 0 mm 3 m/s 751 mmHg 65%
11:00 +13°C° 0 mm 3 m/s 751 mmHg 64%
12:00 +14°C° 0 mm 3 m/s 751 mmHg 61%
13:00 +16°C° 0 mm 3 m/s 751 mmHg 58%
14:00 +17°C° 0 mm 4 m/s 751 mmHg 56%
15:00 +16°C° 0 mm 3 m/s 751 mmHg 60%
16:00 +14°C° 0 mm 3 m/s 751 mmHg 64%
17:00 +14°C° 0 mm 2 m/s 751 mmHg 68%
18:00 +12°C° 0 mm 3 m/s 751 mmHg 70%
19:00 +11°C° 0 mm 3 m/s 751 mmHg 71%
20:00 +11°C° 0 mm 3 m/s 751 mmHg 73%
21:00 +10°C° 0 mm 3 m/s 751 mmHg 76%
22:00 +10°C° 0 mm 3 m/s 751 mmHg 78%
23:00 +9°C° 0 mm 2 m/s 752 mmHg 80%

3 Outubro, Sábado

Tempo Temperatura Precipitação Vento Pressão Humidade
00:00 +10°C° 0 mm 2 m/s 751 mmHg 80%
01:00 +10°C° 0 mm 2 m/s 751 mmHg 79%
02:00 +10°C° 0 mm 2 m/s 751 mmHg 78%
03:00 +11°C° 0 mm 3 m/s 751 mmHg 78%
04:00 +11°C° 0 mm 3 m/s 751 mmHg 77%
05:00 +11°C° 0 mm 3 m/s 751 mmHg 77%
06:00 +11°C° 0 mm 3 m/s 751 mmHg 77%
07:00 +11°C° 0 mm 3 m/s 751 mmHg 77%
08:00 +11°C° 0 mm 3 m/s 751 mmHg 77%
09:00 +13°C° 0 mm 3 m/s 751 mmHg 73%
10:00 +14°C° 0 mm 3 m/s 751 mmHg 69%
11:00 +16°C° 0 mm 3 m/s 751 mmHg 65%
12:00 +14°C° 0 mm 3 m/s 751 mmHg 67%
13:00 +14°C° 0 mm 3 m/s 751 mmHg 70%
14:00 +14°C° 0 mm 3 m/s 751 mmHg 72%
15:00 +13°C° 0 mm 3 m/s 751 mmHg 74%
16:00 +13°C° 0 mm 3 m/s 751 mmHg 76%
17:00 +12°C° 0 mm 3 m/s 751 mmHg 78%
18:00 +12°C° 0 mm 3 m/s 751 mmHg 79%
19:00 +12°C° 0 mm 3 m/s 751 mmHg 80%
20:00 +12°C° 0 mm 3 m/s 751 mmHg 82%
21:00 +11°C° 0 mm 3 m/s 751 mmHg 83%
22:00 +11°C° 0 mm 3 m/s 751 mmHg 83%
23:00 +10°C° 0 mm 3 m/s 751 mmHg 84%

4 Outubro, Domingo

Tempo Temperatura Precipitação Vento Pressão Humidade
00:00 +10°C° 0 mm 3 m/s 751 mmHg 84%
01:00 +9°C° 0 mm 3 m/s 751 mmHg 85%
02:00 +9°C° 0 mm 3 m/s 751 mmHg 85%
03:00 +9°C° 0 mm 3 m/s 751 mmHg 86%
04:00 +10°C° 0 mm 3 m/s 750 mmHg 86%
05:00 +10°C° 0 mm 3 m/s 750 mmHg 86%
06:00 +10°C° 0 mm 4 m/s 750 mmHg 87%
07:00 +10°C° 0 mm 4 m/s 751 mmHg 87%
08:00 +11°C° 0 mm 4 m/s 751 mmHg 88%
09:00 +11°C° 0 mm 4 m/s 751 mmHg 86%
10:00 +12°C° 0 mm 4 m/s 751 mmHg 84%
11:00 +12°C° 0 mm 4 m/s 751 mmHg 83%
12:00 +13°C° 0 mm 4 m/s 751 mmHg 80%
13:00 +13°C° 0 mm 5 m/s 751 mmHg 77%
14:00 +14°C° 0 mm 5 m/s 751 mmHg 74%
15:00 +14°C° 0 mm 5 m/s 751 mmHg 75%
16:00 +13°C° 0 mm 4 m/s 751 mmHg 76%
17:00 +13°C° 0 mm 4 m/s 751 mmHg 77%
18:00 +13°C° 0 mm 4 m/s 751 mmHg 79%
19:00 +12°C° 0 mm 5 m/s 751 mmHg 81%
20:00 +12°C° 0 mm 5 m/s 751 mmHg 83%
21:00 +12°C° 0 mm 5 m/s 751 mmHg 84%
22:00 +10°C° 0 mm 5 m/s 751 mmHg 85%
23:00 +10°C° 0 mm 5 m/s 751 mmHg 86%
Mostrar mais